QPF
0.01 0.01 0.01 0.01 0.01 0.01 0.01 0.01 0.02 0.03 0.04 0.04 0.04 0.02 0.03 0.06 0.12 0.15 0.19 0.19 0.13 0.09 0.09 0.10 0.11 0.10 0.10 0.10 0.10 0.07 0.05 0.02 0.01 0.02 0.04 0.05 0.05 0.06 0.06 0.04 0.02 0.01 0.01
0.02 0.02 0.01 0.01 0.01 0.01 0.01 0.01 0.03 0.04 0.04 0.05 0.04 0.02 0.02 0.05 0.11 0.15 0.19 0.20 0.16 0.10 0.10 0.10 0.09 0.09 0.09 0.10 0.12 0.09 0.05 0.03 0.02 0.02 0.03 0.05 0.06 0.06 0.06 0.06 0.03 0.01 0.01
0.03 0.03 0.02 0.01 0.01 0.01 0.01 0.01 0.02 0.03 0.04 0.04 0.05 0.03 0.02 0.05 0.10 0.15 0.21 0.22 0.18 0.12 0.10 0.09 0.07 0.08 0.09 0.09 0.12 0.11 0.07 0.05 0.03 0.02 0.03 0.04 0.05 0.06 0.06 0.05 0.05 0.03 0.02
0.04 0.04 0.03 0.02 0.01 0.01 0.00 0.01 0.01 0.02 0.04 0.05 0.06 0.04 0.03 0.05 0.08 0.12 0.19 0.21 0.19 0.15 0.12 0.10 0.06 0.06 0.07 0.07 0.10 0.11 0.07 0.05 0.03 0.03 0.03 0.03 0.03 0.04 0.06 0.06 0.05 0.04 0.03
0.04 0.05 0.04 0.02 0.02 0.01 0.00 0.00 0.01 0.01 0.03 0.05 0.06 0.05 0.04 0.04 0.07 0.11 0.16 0.20 0.19 0.15 0.14 0.12 0.06 0.05 0.06 0.06 0.08 0.10 0.09 0.06 0.03 0.02 0.03 0.03 0.04 0.03 0.04 0.05 0.06 0.05 0.04
0.05 0.05 0.05 0.03 0.02 0.02 0.01 0.01 0.01 0.01 0.02 0.05 0.06 0.07 0.05 0.05 0.07 0.10 0.15 0.21 0.20 0.17 0.14 0.13 0.08 0.06 0.06 0.07 0.07 0.08 0.08 0.07 0.05 0.02 0.02 0.03 0.04 0.04 0.03 0.03 0.04 0.05 0.05
0.07 0.07 0.08 0.06 0.03 0.03 0.03 0.02 0.01 0.02 0.02 0.04 0.07 0.08 0.07 0.06 0.07 0.09 0.13 0.19 0.21 0.19 0.16 0.15 0.11 0.07 0.06 0.07 0.07 0.07 0.06 0.07 0.07 0.05 0.03 0.03 0.03 0.03 0.04 0.04 0.04 0.04 0.05
0.07 0.07 0.08 0.10 0.07 0.05 0.04 0.03 0.02 0.02 0.02 0.04 0.06 0.08 0.09 0.08 0.08 0.09 0.11 0.16 0.19 0.18 0.15 0.15 0.14 0.10 0.07 0.08 0.07 0.07 0.06 0.05 0.06 0.07 0.06 0.05 0.04 0.04 0.04 0.04 0.04 0.04 0.04
0.06 0.06 0.06 0.08 0.11 0.08 0.05 0.03 0.03 0.02 0.03 0.04 0.07 0.07 0.08 0.09 0.08 0.08 0.10 0.12 0.17 0.17 0.14 0.14 0.15 0.14 0.11 0.10 0.09 0.07 0.06 0.05 0.04 0.04 0.05 0.06 0.06 0.05 0.05 0.04 0.04 0.05 0.05
0.06 0.07 0.07 0.07 0.10 0.12 0.10 0.07 0.05 0.04 0.03 0.03 0.06 0.09 0.08 0.07 0.08 0.10 0.12 0.12 0.14 0.14 0.14 0.12 0.13 0.14 0.13 0.12 0.09 0.07 0.06 0.05 0.04 0.03 0.02 0.04 0.05 0.06 0.06 0.05 0.04 0.04 0.03
0.07 0.09 0.10 0.11 0.11 0.10 0.11 0.10 0.08 0.06 0.04 0.03 0.04 0.07 0.11 0.09 0.09 0.13 0.15 0.15 0.13 0.13 0.12 0.12 0.13 0.13 0.13 0.13 0.09 0.06 0.05 0.05 0.04 0.03 0.02 0.02 0.03 0.04 0.06 0.06 0.05 0.04 0.04
0.06 0.07 0.08 0.12 0.13 0.11 0.11 0.11 0.10 0.08 0.07 0.06 0.05 0.06 0.10 0.13 0.12 0.15 0.18 0.19 0.15 0.14 0.12 0.11 0.14 0.14 0.13 0.13 0.11 0.07 0.05 0.05 0.05 0.04 0.03 0.03 0.02 0.03 0.04 0.05 0.05 0.04 0.04
0.05 0.06 0.07 0.11 0.14 0.14 0.12 0.12 0.12 0.12 0.11 0.09 0.07 0.07 0.09 0.11 0.11 0.12 0.15 0.18 0.18 0.16 0.14 0.14 0.15 0.15 0.15 0.14 0.13 0.11 0.08 0.05 0.05 0.05 0.05 0.04 0.03 0.03 0.04 0.04 0.04 0.04 0.04
0.04 0.05 0.06 0.08 0.10 0.12 0.12 0.12 0.12 0.12 0.09 0.08 0.08 0.08 0.09 0.09 0.09 0.10 0.11 0.13 0.16 0.17 0.15 0.12 0.13 0.13 0.13 0.13 0.12 0.12 0.11 0.07 0.05 0.04 0.04 0.04 0.04 0.04 0.05 0.05 0.05 0.04 0.04
0.03 0.06 0.07 0.07 0.07 0.08 0.10 0.11 0.11 0.09 0.08 0.07 0.07 0.07 0.07 0.07 0.08 0.08 0.11 0.12 0.13 0.14 0.14 0.11 0.10 0.09 0.09 0.10 0.09 0.08 0.10 0.10 0.07 0.04 0.03 0.03 0.04 0.04 0.04 0.04 0.05 0.05 0.05
0.03 0.04 0.06 0.07 0.06 0.06 0.07 0.07 0.07 0.07 0.06 0.06 0.06 0.06 0.06 0.05 0.05 0.06 0.08 0.11 0.11 0.11 0.11 0.10 0.08 0.07 0.06 0.08 0.08 0.06 0.07 0.08 0.09 0.07 0.05 0.04 0.03 0.03 0.04 0.04 0.05 0.06 0.06
0.02 0.03 0.05 0.05 0.05 0.05 0.05 0.05 0.05 0.05 0.05 0.05 0.04 0.04 0.05 0.05 0.04 0.05 0.05 0.07 0.08 0.07 0.08 0.07 0.07 0.06 0.06 0.06 0.06 0.06 0.05 0.06 0.06 0.06 0.07 0.07 0.06 0.05 0.04 0.03 0.03 0.03 0.04
0.02 0.03 0.04 0.04 0.05 0.05 0.04 0.04 0.03 0.03 0.03 0.04 0.04 0.03 0.03 0.04 0.03 0.03 0.04 0.05 0.07 0.07 0.06 0.06 0.05 0.04 0.05 0.06 0.06 0.06 0.05 0.05 0.05 0.05 0.05 0.06 0.06 0.06 0.07 0.07 0.06 0.04 0.03
0.02 0.03 0.03 0.04 0.04 0.04 0.03 0.02 0.02 0.02 0.02 0.02 0.02 0.03 0.02 0.02 0.02 0.03 0.03 0.04 0.06 0.07 0.06 0.06 0.06 0.05 0.05 0.05 0.05 0.05 0.05 0.04 0.04 0.04 0.04 0.05 0.05 0.06 0.06 0.05 0.05 0.04 0.04
0.02 0.03 0.03 0.03 0.03 0.03 0.02 0.02 0.02 0.02 0.02 0.02 0.02 0.02 0.02 0.02 0.02 0.02 0.03 0.03 0.04 0.06 0.06 0.05 0.05 0.06 0.05 0.05 0.05 0.04 0.04 0.04 0.03 0.03 0.04 0.05 0.05 0.06 0.06 0.06 0.06 0.05 0.04
0.02 0.02 0.02 0.02 0.02 0.02 0.03 0.03 0.02 0.02 0.02 0.02 0.02 0.02 0.02 0.02 0.02 0.02 0.02 0.02 0.03 0.03 0.04 0.04 0.04 0.04 0.04 0.04 0.04 0.04 0.03 0.04 0.04 0.03 0.03 0.04 0.04 0.04 0.04 0.04 0.04 0.04 0.04
0.01 0.01 0.01 0.02 0.02 0.02 0.03 0.03 0.03 0.02 0.02 0.02 0.02 0.02 0.02 0.02 0.02 0.02 0.02 0.02 0.02 0.02 0.02 0.02 0.02 0.02 0.02 0.02 0.03 0.03 0.03 0.04 0.04 0.04 0.04 0.03 0.04 0.04 0.04 0.04 0.04 0.04 0.03
0.01 0.01 0.01 0.01 0.01 0.01 0.02 0.03 0.03 0.02 0.02 0.02 0.02 0.02 0.02 0.02 0.02 0.03 0.03 0.02 0.02 0.02 0.02 0.02 0.02 0.01 0.01 0.01 0.02 0.02 0.02 0.03 0.03 0.04 0.04 0.04 0.04 0.04 0.04 0.04 0.05 0.04 0.03
0.01 0.01 0.01 0.01 0.01 0.01 0.01 0.02 0.02 0.03 0.03 0.03 0.02 0.02 0.02 0.02 0.02 0.02 0.02 0.02 0.02 0.02 0.02 0.02 0.02 0.01 0.01 0.01 0.01 0.02 0.02 0.02 0.02 0.03 0.04 0.04 0.03 0.04 0.04 0.04 0.04 0.04 0.04
0.01 0.01 0.01 0.01 0.01 0.01 0.01 0.01 0.02 0.02 0.03 0.03 0.03 0.02 0.02 0.02 0.02 0.02 0.03 0.03 0.03 0.03 0.03 0.03 0.02 0.02 0.02 0.01 0.01 0.01 0.01 0.01 0.02 0.03 0.04 0.04 0.04 0.03 0.03 0.04 0.03 0.03 0.04
0.00 0.01 0.01 0.01 0.01 0.01 0.01 0.01 0.01 0.02 0.02 0.03 0.03 0.03 0.02 0.02 0.02 0.03 0.03 0.04 0.04 0.03 0.03 0.03 0.03 0.02 0.02 0.01 0.01 0.01 0.02 0.02 0.03 0.04 0.04 0.04 0.04 0.04 0.04 0.04 0.04 0.04 0.04
MSLP
1019.17 1020.15 1021.09 1021.95 1022.69 1023.31 1023.81 1024.19 1024.45 1024.62 1024.69 1024.70 1024.64 1024.55 1024.43 1024.31 1024.19 1024.08 1023.97 1023.85 1023.73 1023.59 1023.45 1023.30 1023.17 1023.05 1022.94 1022.83 1022.68 1022.48 1022.16 1021.70 1021.08 1020.30 1019.39 1018.39 1017.38 1016.42 1015.60 1014.97 1014.57 1014.42 1014.49
1018.69 1019.69 1020.66 1021.54 1022.32 1022.98 1023.52 1023.94 1024.23 1024.42 1024.52 1024.53 1024.47 1024.37 1024.23 1024.09 1023.93 1023.78 1023.63 1023.48 1023.34 1023.18 1023.03 1022.90 1022.78 1022.68 1022.61 1022.53 1022.43 1022.27 1022.00 1021.60 1021.02 1020.29 1019.40 1018.41 1017.37 1016.37 1015.47 1014.74 1014.23 1013.95 1013.92
1018.49 1019.49 1020.45 1021.33 1022.11 1022.77 1023.32 1023.76 1024.08 1024.28 1024.39 1024.40 1024.33 1024.19 1024.02 1023.82 1023.60 1023.38 1023.18 1022.97 1022.78 1022.60 1022.43 1022.29 1022.18 1022.10 1022.04 1021.99 1021.93 1021.81 1021.61 1021.27 1020.78 1020.12 1019.31 1018.38 1017.38 1016.38 1015.44 1014.65 1014.04 1013.65 1013.49
1018.61 1019.58 1020.50 1021.33 1022.07 1022.71 1023.24 1023.66 1023.98 1024.19 1024.29 1024.29 1024.19 1024.01 1023.78 1023.50 1023.20 1022.90 1022.61 1022.34 1022.09 1021.87 1021.68 1021.52 1021.41 1021.33 1021.28 1021.25 1021.22 1021.15 1021.01 1020.76 1020.37 1019.83 1019.14 1018.32 1017.41 1016.46 1015.54 1014.72 1014.03 1013.54 1013.25
1019.00 1019.93 1020.78 1021.54 1022.20 1022.77 1023.25 1023.64 1023.94 1024.12 1024.21 1024.18 1024.04 1023.80 1023.50 1023.14 1022.75 1022.36 1021.99 1021.64 1021.33 1021.07 1020.85 1020.67 1020.54 1020.46 1020.41 1020.39 1020.38 1020.36 1020.28 1020.12 1019.85 1019.44 1018.90 1018.23 1017.46 1016.61 1015.75 1014.93 1014.20 1013.61 1013.20
1019.59 1020.45 1021.22 1021.88 1022.45 1022.93 1023.34 1023.67 1023.92 1024.07 1024.11 1024.04 1023.85 1023.56 1023.18 1022.74 1022.26 1021.79 1021.33 1020.92 1020.56 1020.26 1020.01 1019.82 1019.68 1019.58 1019.53 1019.51 1019.51 1019.51 1019.49 1019.41 1019.25 1018.99 1018.62 1018.11 1017.50 1016.78 1016.01 1015.23 1014.48 1013.82 1013.30
1020.27 1021.07 1021.74 1022.30 1022.75 1023.13 1023.45 1023.70 1023.89 1023.99 1023.98 1023.86 1023.62 1023.26 1022.82 1022.30 1021.75 1021.21 1020.69 1020.23 1019.83 1019.50 1019.23 1019.02 1018.87 1018.76 1018.69 1018.66 1018.66 1018.67 1018.68 1018.67 1018.61 1018.47 1018.25 1017.91 1017.46 1016.89 1016.24 1015.52 1014.79 1014.09 1013.47
1020.94 1021.66 1022.23 1022.68 1023.03 1023.31 1023.53 1023.71 1023.82 1023.86 1023.79 1023.62 1023.32 1022.91 1022.40 1021.82 1021.22 1020.62 1020.06 1019.56 1019.14 1018.79 1018.51 1018.29 1018.12 1017.99 1017.91 1017.85 1017.83 1017.83 1017.86 1017.88 1017.89 1017.85 1017.75 1017.56 1017.26 1016.85 1016.31 1015.69 1015.01 1014.31 1013.64
1021.49 1022.13 1022.61 1022.97 1023.22 1023.41 1023.55 1023.64 1023.68 1023.65 1023.53 1023.29 1022.94 1022.48 1021.92 1021.30 1020.65 1020.02 1019.43 1018.91 1018.46 1018.10 1017.81 1017.58 1017.39 1017.24 1017.13 1017.04 1016.99 1016.97 1016.98 1017.01 1017.05 1017.08 1017.08 1017.00 1016.84 1016.56 1016.16 1015.64 1015.03 1014.37 1013.71
1021.86 1022.42 1022.82 1023.10 1023.28 1023.40 1023.46 1023.49 1023.46 1023.36 1023.18 1022.88 1022.48 1021.96 1021.36 1020.70 1020.02 1019.36 1018.75 1018.21 1017.74 1017.36 1017.05 1016.80 1016.59 1016.41 1016.26 1016.14 1016.05 1015.99 1015.98 1016.00 1016.06 1016.12 1016.18 1016.19 1016.13 1015.97 1015.69 1015.30 1014.80 1014.22 1013.60
1021.99 1022.48 1022.83 1023.05 1023.19 1023.26 1023.27 1023.24 1023.15 1022.99 1022.74 1022.38 1021.92 1021.35 1020.71 1020.01 1019.30 1018.61 1017.97 1017.40 1016.90 1016.49 1016.14 1015.85 1015.60 1015.39 1015.20 1015.05 1014.92 1014.84 1014.80 1014.81 1014.86 1014.94 1015.03 1015.11 1015.13 1015.08 1014.92 1014.65 1014.26 1013.79 1013.26
1021.91 1022.34 1022.65 1022.85 1022.96 1023.00 1022.99 1022.91 1022.77 1022.54 1022.22 1021.80 1021.27 1020.66 1019.96 1019.23 1018.48 1017.75 1017.06 1016.44 1015.89 1015.41 1015.00 1014.66 1014.35 1014.10 1013.88 1013.69 1013.55 1013.46 1013.41 1013.42 1013.48 1013.58 1013.70 1013.82 1013.91 1013.94 1013.89 1013.73 1013.47 1013.12 1012.69
1021.66 1022.05 1022.34 1022.53 1022.64 1022.67 1022.64 1022.53 1022.33 1022.04 1021.65 1021.15 1020.56 1019.88 1019.14 1018.35 1017.55 1016.77 1016.02 1015.32 1014.68 1014.11 1013.61 1013.18 1012.81 1012.50 1012.25 1012.06 1011.92 1011.85 1011.83 1011.87 1011.97 1012.10 1012.26 1012.42 1012.57 1012.66 1012.69 1012.64 1012.49 1012.25 1011.93
1021.31 1021.67 1021.95 1022.16 1022.27 1022.31 1022.25 1022.10 1021.85 1021.49 1021.02 1020.45 1019.79 1019.05 1018.25 1017.41 1016.55 1015.69 1014.85 1014.05 1013.30 1012.61 1011.99 1011.45 1011.00 1010.63 1010.36 1010.17 1010.08 1010.06 1010.11 1010.23 1010.39 1010.58 1010.80 1011.01 1011.20 1011.35 1011.44 1011.46 1011.39 1011.24 1011.02
1020.93 1021.28 1021.57 1021.79 1021.91 1021.94 1021.86 1021.67 1021.35 1020.92 1020.37 1019.73 1019.00 1018.20 1017.34 1016.44 1015.51 1014.56 1013.62 1012.69 1011.80 1010.96 1010.20 1009.53 1008.98 1008.56 1008.27 1008.12 1008.09 1008.16 1008.33 1008.56 1008.82 1009.11 1009.40 1009.67 1009.90 1010.10 1010.22 1010.28 1010.26 1010.17 1010.00
1020.61 1020.95 1021.25 1021.47 1021.59 1021.60 1021.49 1021.24 1020.85 1020.34 1019.72 1019.00 1018.21 1017.35 1016.44 1015.48 1014.48 1013.44 1012.38 1011.32 1010.27 1009.27 1008.34 1007.54 1006.89 1006.40 1006.11 1005.99 1006.05 1006.24 1006.55 1006.92 1007.33 1007.74 1008.11 1008.44 1008.72 1008.93 1009.07 1009.13 1009.13 1009.05 1008.92
1020.37 1020.70 1021.00 1021.21 1021.32 1021.30 1021.13 1020.81 1020.35 1019.76 1019.06 1018.28 1017.43 1016.53 1015.57 1014.57 1013.50 1012.38 1011.21 1010.00 1008.79 1007.62 1006.53 1005.58 1004.81 1004.27 1003.96 1003.89 1004.04 1004.37 1004.83 1005.36 1005.92 1006.45 1006.92 1007.31 1007.62 1007.83 1007.96 1008.01 1007.99 1007.91 1007.78
1020.21 1020.54 1020.81 1021.01 1021.08 1021.00 1020.77 1020.38 1019.84 1019.18 1018.42 1017.59 1016.70 1015.77 1014.78 1013.74 1012.62 1011.42 1010.14 1008.80 1007.43 1006.09 1004.84 1003.74 1002.87 1002.26 1001.93 1001.90 1002.14 1002.58 1003.19 1003.87 1004.57 1005.21 1005.77 1006.21 1006.54 1006.74 1006.84 1006.85 1006.80 1006.70 1006.56
1020.09 1020.39 1020.64 1020.79 1020.82 1020.69 1020.39 1019.93 1019.32 1018.60 1017.79 1016.93 1016.02 1015.07 1014.07 1013.00 1011.84 1010.58 1009.21 1007.75 1006.24 1004.74 1003.34 1002.10 1001.12 1000.43 1000.09 1000.07 1000.37 1000.91 1001.62 1002.42 1003.22 1003.96 1004.57 1005.05 1005.37 1005.55 1005.61 1005.58 1005.50 1005.38 1005.24
1019.94 1020.20 1020.41 1020.52 1020.49 1020.30 1019.94 1019.42 1018.77 1018.01 1017.18 1016.30 1015.39 1014.44 1013.44 1012.37 1011.18 1009.86 1008.42 1006.86 1005.23 1003.60 1002.06 1000.70 999.61 998.85 998.46 998.44 998.75 999.34 1000.12 1000.98 1001.84 1002.62 1003.26 1003.74 1004.04 1004.19 1004.21 1004.15 1004.04 1003.91 1003.79
1019.66 1019.89 1020.06 1020.12 1020.05 1019.82 1019.42 1018.87 1018.19 1017.42 1016.59 1015.72 1014.83 1013.90 1012.91 1011.83 1010.63 1009.28 1007.78 1006.14 1004.42 1002.68 1001.03 999.57 998.38 997.54 997.09 997.03 997.33 997.91 998.69 999.56 1000.42 1001.19 1001.81 1002.26 1002.52 1002.62 1002.61 1002.52 1002.41 1002.31 1002.24
1019.22 1019.41 1019.54 1019.58 1019.48 1019.23 1018.82 1018.27 1017.60 1016.85 1016.04 1015.21 1014.34 1013.44 1012.48 1011.41 1010.20 1008.83 1007.29 1005.60 1003.81 1002.01 1000.27 998.73 997.46 996.55 996.03 995.90 996.14 996.67 997.39 998.20 999.01 999.72 1000.27 1000.65 1000.85 1000.91 1000.86 1000.76 1000.66 1000.61 1000.62
1018.58 1018.75 1018.87 1018.89 1018.80 1018.56 1018.17 1017.65 1017.03 1016.32 1015.57 1014.78 1013.96 1013.10 1012.15 1011.10 1009.90 1008.52 1006.96 1005.25 1003.44 1001.60 999.82 998.23 996.91 995.93 995.33 995.12 995.26 995.69 996.30 997.01 997.70 998.30 998.75 999.03 999.16 999.16 999.08 998.98 998.91 998.92 999.02
1017.80 1017.96 1018.08 1018.12 1018.05 1017.85 1017.52 1017.07 1016.51 1015.88 1015.19 1014.46 1013.70 1012.87 1011.97 1010.94 1009.75 1008.38 1006.84 1005.14 1003.33 1001.50 999.72 998.12 996.77 995.74 995.07 994.77 994.79 995.08 995.55 996.10 996.64 997.09 997.41 997.58 997.62 997.55 997.44 997.34 997.31 997.38 997.57
1016.96 1017.13 1017.27 1017.35 1017.33 1017.19 1016.94 1016.57 1016.10 1015.55 1014.94 1014.29 1013.58 1012.80 1011.93 1010.93 1009.78 1008.45 1006.94 1005.29 1003.53 1001.75 1000.02 998.44 997.10 996.05 995.32 994.93 994.83 994.97 995.26 995.63 995.99 996.27 996.44 996.48 996.42 996.29 996.15 996.05 996.03 996.15 996.42
1016.16 1016.36 1016.54 1016.67 1016.72 1016.66 1016.49 1016.22 1015.84 1015.38 1014.86 1014.27 1013.63 1012.90 1012.08 1011.12 1010.02 1008.75 1007.32 1005.75 1004.09 1002.40 1000.76 999.25 997.95 996.90 996.14 995.66 995.44 995.42 995.54 995.72 995.89 995.99 996.00 995.92 995.76 995.57 995.39 995.27 995.27 995.42 995.73
Thickness
5507 5505 5502 5499 5497 5495 5494 5495 5495 5497 5499 5502 5504 5507 5511 5514 5519 5523 5526 5531 5535 5539 5544 5548 5551 5555 5559 5563 5566 5569 5570 5571 5574 5576 5575 5577 5581 5582 5584 5585 5586 5587 5588
5498 5495 5492 5489 5486 5484 5484 5484 5484 5485 5488 5490 5493 5496 5499 5503 5506 5510 5515 5519 5522 5527 5532 5536 5540 5543 5547 5551 5556 5559 5559 5561 5564 5566 5566 5566 5568 5571 5574 5575 5577 5578 5579
5489 5485 5483 5480 5477 5475 5474 5475 5474 5475 5477 5479 5481 5485 5488 5491 5495 5499 5503 5507 5511 5516 5522 5526 5529 5532 5536 5541 5545 5548 5550 5551 5554 5556 5558 5558 5559 5559 5563 5565 5567 5568 5570
5481 5476 5473 5471 5468 5466 5465 5464 5465 5466 5467 5469 5471 5474 5477 5480 5484 5487 5492 5496 5501 5506 5510 5515 5519 5522 5526 5530 5534 5537 5539 5541 5544 5546 5549 5551 5553 5551 5551 5554 5556 5559 5560
5472 5467 5463 5462 5460 5458 5456 5455 5455 5456 5458 5460 5462 5464 5468 5471 5474 5478 5481 5486 5490 5495 5500 5505 5508 5512 5516 5520 5523 5526 5528 5531 5534 5536 5538 5541 5543 5544 5544 5544 5545 5548 5550
5463 5458 5454 5452 5451 5449 5447 5446 5446 5448 5449 5451 5453 5455 5458 5461 5465 5468 5471 5475 5479 5484 5489 5494 5498 5502 5505 5509 5513 5516 5518 5521 5524 5526 5528 5530 5532 5534 5535 5536 5536 5537 5539
5452 5448 5445 5443 5442 5441 5440 5440 5440 5440 5441 5443 5444 5447 5450 5454 5457 5460 5463 5465 5469 5474 5479 5484 5488 5491 5496 5499 5502 5506 5508 5511 5513 5516 5519 5521 5523 5526 5528 5528 5527 5527 5528
5443 5440 5438 5435 5434 5433 5432 5432 5433 5433 5434 5436 5438 5440 5443 5446 5449 5453 5455 5457 5460 5465 5470 5474 5477 5481 5486 5489 5492 5496 5498 5500 5503 5506 5509 5511 5513 5516 5518 5519 5519 5517 5518
5435 5432 5429 5427 5426 5425 5425 5425 5425 5426 5428 5429 5431 5434 5436 5438 5442 5445 5447 5449 5453 5457 5461 5464 5467 5472 5476 5480 5482 5485 5488 5490 5493 5496 5499 5501 5503 5505 5508 5509 5511 5511 5510
5427 5425 5422 5420 5419 5418 5418 5418 5418 5419 5420 5422 5423 5427 5429 5431 5434 5437 5439 5443 5446 5449 5453 5455 5458 5463 5467 5469 5472 5475 5478 5480 5483 5485 5488 5490 5492 5495 5497 5498 5500 5502 5503
5418 5416 5414 5413 5411 5411 5412 5412 5412 5412 5414 5415 5417 5418 5421 5423 5426 5429 5432 5435 5438 5440 5443 5446 5450 5453 5457 5459 5462 5465 5468 5470 5472 5475 5478 5480 5482 5484 5486 5487 5489 5491 5493
5408 5406 5404 5404 5403 5403 5403 5404 5405 5405 5407 5408 5409 5411 5413 5415 5417 5420 5423 5426 5429 5433 5435 5437 5440 5444 5447 5449 5452 5454 5457 5459 5462 5465 5467 5469 5471 5473 5475 5476 5478 5480 5482
5398 5396 5394 5394 5393 5393 5394 5396 5396 5397 5398 5400 5401 5402 5404 5406 5408 5411 5413 5417 5420 5423 5425 5428 5431 5434 5437 5439 5441 5444 5446 5449 5452 5454 5456 5458 5460 5462 5463 5465 5467 5469 5471
5386 5385 5384 5384 5384 5384 5385 5387 5388 5389 5390 5391 5392 5394 5396 5398 5400 5402 5405 5408 5411 5414 5416 5418 5421 5423 5426 5428 5431 5433 5435 5438 5441 5443 5445 5447 5450 5451 5452 5454 5456 5457 5458
5376 5375 5374 5374 5375 5375 5376 5377 5378 5379 5381 5382 5384 5386 5387 5389 5391 5393 5396 5398 5401 5404 5407 5409 5411 5413 5415 5418 5420 5423 5425 5426 5429 5431 5433 5436 5439 5441 5442 5444 5445 5447 5447
5364 5364 5364 5364 5364 5365 5366 5367 5368 5370 5371 5372 5375 5377 5378 5380 5382 5384 5387 5388 5391 5394 5396 5398 5400 5402 5405 5408 5410 5412 5413 5415 5417 5420 5422 5424 5427 5429 5431 5433 5435 5437 5437
5351 5352 5352 5352 5353 5354 5356 5357 5358 5360 5361 5363 5365 5367 5369 5371 5372 5374 5376 5378 5381 5383 5385 5387 5389 5391 5393 5396 5399 5400 5402 5404 5406 5409 5411 5413 5416 5418 5420 5422 5423 5425 5426
5339 5340 5341 5342 5343 5344 5345 5347 5349 5350 5351 5352 5355 5357 5359 5361 5362 5364 5366 5368 5370 5372 5374 5376 5379 5381 5383 5385 5387 5389 5390 5392 5394 5397 5399 5402 5404 5406 5408 5410 5411 5413 5415
5328 5329 5330 5331 5333 5334 5335 5337 5339 5341 5342 5343 5344 5346 5348 5351 5353 5354 5355 5357 5359 5361 5363 5365 5368 5370 5372 5374 5376 5377 5378 5380 5382 5385 5387 5390 5393 5395 5397 5399 5400 5402 5404
5319 5320 5320 5321 5322 5324 5326 5328 5329 5330 5331 5332 5333 5335 5337 5340 5342 5343 5345 5346 5348 5350 5352 5354 5357 5360 5361 5363 5364 5365 5367 5369 5371 5374 5376 5379 5381 5383 5385 5387 5389 5390 5392
5310 5311 5311 5311 5312 5314 5315 5317 5318 5319 5321 5323 5324 5325 5327 5329 5331 5333 5334 5335 5337 5339 5341 5344 5347 5348 5350 5351 5352 5354 5355 5357 5359 5362 5365 5367 5370 5372 5374 5376 5378 5380 5381
5301 5301 5301 5301 5302 5303 5305 5306 5307 5309 5311 5313 5314 5315 5316 5318 5320 5322 5324 5324 5326 5327 5329 5332 5335 5337 5338 5340 5341 5343 5344 5346 5348 5350 5353 5356 5358 5360 5361 5363 5366 5367 5368
5290 5291 5291 5292 5293 5294 5294 5295 5297 5299 5301 5303 5304 5305 5306 5308 5309 5311 5312 5312 5314 5315 5318 5320 5323 5325 5327 5328 5330 5332 5334 5335 5336 5338 5342 5344 5346 5347 5348 5350 5352 5353 5353
5280 5281 5281 5282 5283 5284 5285 5286 5288 5289 5291 5293 5294 5295 5296 5297 5298 5299 5301 5301 5302 5303 5306 5308 5310 5313 5315 5316 5318 5319 5321 5323 5324 5326 5328 5331 5333 5334 5336 5337 5337 5338 5340
5271 5271 5271 5272 5273 5274 5276 5278 5279 5280 5281 5283 5284 5285 5286 5286 5287 5288 5289 5290 5291 5292 5293 5296 5298 5301 5303 5304 5306 5308 5309 5311 5313 5314 5315 5317 5319 5320 5322 5323 5324 5325 5326
5262 5262 5263 5263 5264 5266 5267 5268 5269 5270 5271 5272 5273 5274 5274 5275 5276 5277 5278 5279 5280 5282 5284 5286 5288 5290 5292 5294 5296 5297 5299 5300 5302 5302 5303 5305 5307 5309 5310 5311 5312 5312 5313